Flag for Germany Weather past 2 weeks in Kassel, Hesse, Germany

Now
59 °F

Passing clouds.


Feels Like: 59 °F
Forecast: 53 / 83 °F
Wind: 5 mph from Northwest

Location: Fritzlar Airport

Current Time: Aug 2, 2015 at 3:05:45 AM

Latest Report: Aug 2, 2015 at 2:20 AM


Visibility: N/A

Pressure: 30.07 "Hg

Humidity: 72%

Dew point: 50 °F

Location of KasselLocation

Historic Weather in Kassel — Graph

°F

Kassel temperature yesterday

Maximum temperature yesterday: 77 °F (at 3:20 PM)
Minimum temperature yesterday: 48 °F (at 4:20 AM)
Average temperature yesterday: 63 °F

Past Weeks' High & Low Weather Summary

 TemperatureHumidityPressure
High84 °F (Jul 22, 2:20 PM)100% (Jul 19, 8:49 AM)30.12 "Hg (Jul 19, 8:49 AM)
Low45 °F (Jul 31, 4:20 AM)28% (Aug 1, 6:20 PM)29.56 "Hg (Jul 25, 10:20 AM)
Average64 °F70%29.89 "Hg
* Reported Jul 18 1:20 AM — Aug 2 1:20 AM, Kassel, Weather by CustomWeather, © 2015

Note: Actual official high and low records may vary slightly from our data, if they occured in-between our weather recording intervals... More about our weather records

Advertising

Kassel weather history for previous 24 hours

 ConditionsComfort  
Time TempWeatherWind HumidityBarometerVisibility
1:20 AM
Sun, Aug 2
61 °FPassing clouds.5 mph68%30.04 "HgN/A
12:20 AM61 °FPassing clouds.8 mph68%30.04 "HgN/A
11:20 PM
Sat, Aug 1
63 °FPassing clouds.7 mph64%30.01 "HgN/A
10:20 PM64 °FPassing clouds.6 mph56%30.01 "HgN/A
9:20 PM66 °FScattered clouds.3 mph52%29.98 "HgN/A
8:20 PM72 °FScattered clouds.3 mph50%29.95 "HgN/A
7:20 PM77 °FPassing clouds.3 mph32%29.95 "HgN/A
6:20 PM77 °FPassing clouds.3 mph28%29.95 "HgN/A
5:20 PM77 °FPassing clouds.5 mph30%29.95 "Hg4 mi
4:20 PM77 °FPassing clouds.3 mph30%29.95 "HgN/A
3:20 PM77 °FPassing clouds.5 mph32%29.95 "HgN/A
2:20 PM73 °FPassing clouds.3 mph38%29.98 "HgN/A
1:20 PM72 °FPassing clouds.5 mph41%29.98 "HgN/A
12:20 PM70 °FScattered clouds.3 mph43%29.98 "HgN/A
11:20 AM66 °FPartly sunny.5 mph49%30.01 "HgN/A
10:20 AM63 °FPartly sunny.5 mph52%30.01 "HgN/A
9:20 AM57 °FPartly sunny.6 mph67%30.01 "HgN/A
8:20 AM54 °FPartly sunny.6 mph72%30.01 "HgN/A
7:20 AM50 °FBroken clouds.7 mph82%30.01 "HgN/A
6:20 AM50 °FPassing clouds.7 mph76%30.01 "HgN/A
5:20 AM48 °FPassing clouds.7 mph82%30.01 "HgN/A
4:20 AM48 °FPassing clouds.6 mph82%30.04 "HgN/A
3:20 AM50 °FOvercast.6 mph76%30.04 "HgN/A
Weather by CustomWeather, © 2015

See weather overviewHow to use our weather pages